Aviation Digital Data Service (ADDS)

Output produced by METARs form (2237 UTC 30 March 2017)
found at http://www.aviationweather.gov/adds/metars/
 
OIAA 302200Z 22006KT CAVOK 21/13 Q1014
TAF OIAA 301755Z 3018/3124 33004MPS 7000 FEW030 SCT100 
     PROB30 3100/3104 3000 BR 
     BECMG 3104/3106 13006MPS 6000 FEW030CB SCT035 BKN100 
     TEMPO 3106/3116 24007G13MPS 3000 TSRA/SA SCT030CB SCT035 OVC090
       
OIAG 302000Z 29002KT CAVOK 22/15 Q1015
OIAW 302151Z 28002KT CAVOK 21/12 Q1014
TAF OIAW 301755Z 3018/3124 33004MPS 7000 FEW030 SCT100 
     BECMG 3100/3101 13006MPS 6000 FEW030CB SCT035 BKN100 
     TEMPO 3101/3112 24007G13MPS 3000 TSRA/SA SCT030CB SCT035 OVC090 
     TEMPO 3121/3124 24007G13MPS 3000 TSRA SCT030CB SCT035 OVC090
       
OITL 302151Z 05006KT 9999 FEW008 01/01 Q1017
OIAA 302200Z 22006KT CAVOK 21/13 Q1014
TAF OIAA 301755Z 3018/3124 33004MPS 7000 FEW030 SCT100 
     PROB30 3100/3104 3000 BR 
     BECMG 3104/3106 13006MPS 6000 FEW030CB SCT035 BKN100 
     TEMPO 3106/3116 24007G13MPS 3000 TSRA/SA SCT030CB SCT035 OVC090
       
OIAD 302000Z 00000KT 6000 NSC 20/16 Q1015 A3000 SCT100 BKN170
OIAG 302000Z 29002KT CAVOK 22/15 Q1015
OIAH 302200Z 00000KT CAVOK 14/09 Q1018
OIAI 302150Z AUTO 00000KT //// // ////// 20/11 Q1015
OIAM 302200Z 00000KT CAVOK 22/17 Q1014
OIAW 302151Z 28002KT CAVOK 21/12 Q1014
TAF OIAW 301755Z 3018/3124 33004MPS 7000 FEW030 SCT100 
     BECMG 3100/3101 13006MPS 6000 FEW030CB SCT035 BKN100 
     TEMPO 3101/3112 24007G13MPS 3000 TSRA/SA SCT030CB SCT035 OVC090 
     TEMPO 3121/3124 24007G13MPS 3000 TSRA SCT030CB SCT035 OVC090
       
OIBB 302150Z 00000KT CAVOK 20/15 Q1014 A2996
OIBK 302200Z 33006KT 5000 BR NSC 23/21 Q1012
TAF OIBK 301755Z 3018/3124 28004MPS 7000 FEW040 
     PROB40 3023/3104 3000 BR SCT015 
     TEMPO 3108/3113 28007MPS
       
OIBL 302100Z 00000KT CAVOK 22/22 Q1013
OIBP 301700Z VRB02KT CAVOK 25/21 Q1011 A2987
OICC 302230Z 29004KT 9999 FEW045 10/04 Q1020 A3014
OICI 302100Z 11002KT CAVOK 09/04 Q1022 A3020
TAF OICI 301755Z 3018/3124 23004MPS 7000 FEW035 SCT100 
     BECMG 3108/3110 FEW035CB SCT040 BKN100 
     TEMPO 3114/3124 16009MPS 3000 RA FEW035CB SCT040 OVC100
       
OICJ 302150Z AUTO 13002KT //// // ////// 11/03 Q1022
OICK 302150Z 14006KT 9999 FEW045 SCT090 09/07 Q1020
OICS 302152Z 19004KT CAVOK 08/03 Q1020
OIFK 302200Z 00000KT CAVOK 13/06 Q1017
OIFM 302230Z 30004KT CAVOK 09/01 Q1020 A3013
TAF OIFM 301755Z 3018/3124 24004MPS 7000 FEW035 SCT100 
     BECMG 3108/3110 FEW030CB SCT035 BKN100 
     TEMPO 3112/3118 24007G12MPS 4000 TSRA/SA SCT030CB SCT035 OVC100
       
OIFS 302200Z 03004KT 9999 FEW040 06/M03 Q1022
OIGG 302200Z 00000KT 2000 BR SCT010 11/11 Q1015
OIGK 302150Z AUTO 26002KT //// // ////// 02/M02 Q1019
OIHH 302153Z 22004KT 9999 SCT040 09/03 Q1020
OIHM 301951Z 11004KT 9999 FEW035 BKN180 09/02 Q1020
OIIE 302200Z 33004KT CAVOK 11/03 Q1018 NOSIG NOSIG
TAF OIIE 301755Z 3018/3124 32005MPS CAVOK 
     BECMG 3110/3112 15005MPS 7000 FEW030CB SCT035 BKN100 
     TEMPO 3121/3124 24007G12MPS 4000 TSRA SCT030CB SCT035 OVC100
       
OIII 302200Z 00000KT CAVOK 15/M01 Q1019 A3009 NOSIG NOSIG
TAF OIII 301755Z 3018/3124 32005MPS CAVOK 
     BECMG 3110/3112 15005MPS 7000 FEW030CB SCT035 BKN100 
     TEMPO 3121/3124 24007G12MPS 4000 TSRA SCT030CB SCT035 OVC100
       
OIIK 302200Z 08002KT CAVOK 09/02 Q1018
OIIS 302200Z 00000KT 9999 FEW040 13/M03 Q1018
OIKB 302200Z 32004KT 5000 BR NSC 22/20 Q1012 A2989
TAF OIKB 301755Z 3018/3124 21004MPS 7000 FEW030 
     BECMG 3021/3023 03004MPS 4000 BR 
     BECMG 3104/3106 15004MPS 4000 HZ 
     BECMG 3120/3121 03004MPS 4000 BR
       
OIKK 302200Z 17004KT CAVOK 10/M01 Q1022 A3019
TAF OIKK 301755Z 3018/3124 24004MPS 7000 FEW040 SCT100 
     TEMPO 3108/3116 24007MPS
       
OIKO 302150Z 00000KT 6000 NSC 21/18 Q1013
OIKQ 302200Z 24012KT 2000 BR NSC 23/22 Q1012
OIMB 302200Z 10004KT CAVOK 11/03 Q1020
OIMC 302200Z AUTO 16004KT //// // ////// 10/08 Q1020
OIMD 302200Z AUTO 12002KT //// // ////// 10/06 Q1018
OIMM 302230Z 15004KT 9999 BKN035 09/06 Q1021 A3015
TAF OIMM 301755Z 3018/3124 14005MPS 7000 BKN020 SCT020 BKN100 
     PROB40 3100/3104 3000 BR 
     BECMG 3107/3109 7000 FEW035 BKN100
       
OIMN 302200Z 08004KT CAVOK 08/05 Q1021
OIMQ 302200Z AUTO 07004KT //// // ////// 10/05 Q1021
OINB 302000Z VRB02KT CAVOK 12/10 Q1015
OINE 302100Z 00000KT CAVOK 08/08 Q1014
OING 302200Z 00000KT CAVOK 08/07 Q1016
OINK 301700Z 00000KT 9999 FEW035 11/09 Q1016
OINN 302200Z VRB02KT CAVOK 09/08 Q1014
OINR 302100Z 00000KT CAVOK 10/09 Q1014
OINZ 302200Z 24004KT CAVOK 09/08 Q1015
OISA 302200Z 27010KT CAVOK 11/M02 Q1023
OISF 302200Z 30004KT CAVOK 11/09 Q1019
OISL 302200Z 00000KT CAVOK 17/16 Q1016
TAF COR OISL 301755Z 3018/3124 24004MPS 7000 FEW030
       
OISS 302230Z 00000KT CAVOK 12/05 Q1022 A3019
TAF OISS 301755Z 3018/3124 24004MPS 7000 FEW035 SCT100 
     BECMG 3108/3110 FEW030CB SCT035 BKN100 
     TEMPO 3112/3120 24007G12MPS 4000 TSRA SCT030CB SCT035 OVC100
       
OISY 302200Z 09006KT CAVOK 09/02 Q1024
OITL 302151Z 05006KT 9999 FEW008 01/01 Q1017
OITM 302100Z 00000KT CAVOK 08/M02 Q1018
OITP 302200Z AUTO 23008KT //// // ////// 07/06 Q1015
OITR 302200Z 23004KT 9999 FEW035 07/M03 Q1018
TAF OITR 301755Z 3018/3124 24004MPS 7000 FEW035 SCT100 
     BECMG 3112/3114 24007MPS FEW030CB SCT035 BKN100 
     TEMPO 3114/3124 4000 TSRA SCT030CB SCT035 OVC100
       
OITT 302230Z VRB02KT 9999 FEW040 06/M03 Q1019 A3010
TAF OITT 301755Z 3018/3124 03004MPS 7000 FEW035 SCT100 
     BECMG 3112/3114 24007MPS FEW030CB SCT035 BKN100 
     TEMPO 3114/0106 24007G12MPS 4000 TSRA SCT030CB SCT035 OVC100
       
OITU 301951Z 00000KT CAVOK 07/M02 Q1019
OIYY 302200Z 28002KT CAVOK 16/M01 Q1020
OIZB 302100Z 33008KT CAVOK 16/08 Q1017
OIZC 302000Z 00000KT 7000 NSC 26/15 Q1010 A2985
OIZH 302200Z 27004KT CAVOK 13/05 Q1020 A3014
TAF OIZH 301755Z 3018/3124 03005MPS CAVOK 
     BECMG 3105/3107 24006MPS
       
OIZI 302100Z 00000KT CAVOK 21/06 Q1015
OIZJ 302100Z 31010KT 7000 NSC 26/19 Q1011
OIAA 302200Z 22006KT CAVOK 21/13 Q1014
TAF OIAA 301755Z 3018/3124 33004MPS 7000 FEW030 SCT100 
     PROB30 3100/3104 3000 BR 
     BECMG 3104/3106 13006MPS 6000 FEW030CB SCT035 BKN100 
     TEMPO 3106/3116 24007G13MPS 3000 TSRA/SA SCT030CB SCT035 OVC090
       
OIAD 302000Z 00000KT 6000 NSC 20/16 Q1015 A3000 SCT100 BKN170
OIAG 302000Z 29002KT CAVOK 22/15 Q1015
OIAH 302200Z 00000KT CAVOK 14/09 Q1018
OIAI 302150Z AUTO 00000KT //// // ////// 20/11 Q1015
OIAM 302200Z 00000KT CAVOK 22/17 Q1014
OIAW 302151Z 28002KT CAVOK 21/12 Q1014
TAF OIAW 301755Z 3018/3124 33004MPS 7000 FEW030 SCT100 
     BECMG 3100/3101 13006MPS 6000 FEW030CB SCT035 BKN100 
     TEMPO 3101/3112 24007G13MPS 3000 TSRA/SA SCT030CB SCT035 OVC090 
     TEMPO 3121/3124 24007G13MPS 3000 TSRA SCT030CB SCT035 OVC090
       
OIBB 302150Z 00000KT CAVOK 20/15 Q1014 A2996
OIBK 302200Z 33006KT 5000 BR NSC 23/21 Q1012
TAF OIBK 301755Z 3018/3124 28004MPS 7000 FEW040 
     PROB40 3023/3104 3000 BR SCT015 
     TEMPO 3108/3113 28007MPS
       
OIBL 302100Z 00000KT CAVOK 22/22 Q1013
OIBP 301700Z VRB02KT CAVOK 25/21 Q1011 A2987
OICC 302230Z 29004KT 9999 FEW045 10/04 Q1020 A3014
OICI 302100Z 11002KT CAVOK 09/04 Q1022 A3020
TAF OICI 301755Z 3018/3124 23004MPS 7000 FEW035 SCT100 
     BECMG 3108/3110 FEW035CB SCT040 BKN100 
     TEMPO 3114/3124 16009MPS 3000 RA FEW035CB SCT040 OVC100
       
OICJ 302150Z AUTO 13002KT //// // ////// 11/03 Q1022
OICK 302150Z 14006KT 9999 FEW045 SCT090 09/07 Q1020
OICS 302152Z 19004KT CAVOK 08/03 Q1020
OIFK 302200Z 00000KT CAVOK 13/06 Q1017
OIFM 302230Z 30004KT CAVOK 09/01 Q1020 A3013
TAF OIFM 301755Z 3018/3124 24004MPS 7000 FEW035 SCT100 
     BECMG 3108/3110 FEW030CB SCT035 BKN100 
     TEMPO 3112/3118 24007G12MPS 4000 TSRA/SA SCT030CB SCT035 OVC100
       
OIFS 302200Z 03004KT 9999 FEW040 06/M03 Q1022
OIGG 302200Z 00000KT 2000 BR SCT010 11/11 Q1015
OIGK 302150Z AUTO 26002KT //// // ////// 02/M02 Q1019
OIHH 302153Z 22004KT 9999 SCT040 09/03 Q1020
OIHM 301951Z 11004KT 9999 FEW035 BKN180 09/02 Q1020
OIIE 302200Z 33004KT CAVOK 11/03 Q1018 NOSIG NOSIG
TAF OIIE 301755Z 3018/3124 32005MPS CAVOK 
     BECMG 3110/3112 15005MPS 7000 FEW030CB SCT035 BKN100 
     TEMPO 3121/3124 24007G12MPS 4000 TSRA SCT030CB SCT035 OVC100
       
OIII 302200Z 00000KT CAVOK 15/M01 Q1019 A3009 NOSIG NOSIG
TAF OIII 301755Z 3018/3124 32005MPS CAVOK 
     BECMG 3110/3112 15005MPS 7000 FEW030CB SCT035 BKN100 
     TEMPO 3121/3124 24007G12MPS 4000 TSRA SCT030CB SCT035 OVC100
       
OIIK 302200Z 08002KT CAVOK 09/02 Q1018
OIIS 302200Z 00000KT 9999 FEW040 13/M03 Q1018
OIKB 302200Z 32004KT 5000 BR NSC 22/20 Q1012 A2989
TAF OIKB 301755Z 3018/3124 21004MPS 7000 FEW030 
     BECMG 3021/3023 03004MPS 4000 BR 
     BECMG 3104/3106 15004MPS 4000 HZ 
     BECMG 3120/3121 03004MPS 4000 BR
       
OIKK 302200Z 17004KT CAVOK 10/M01 Q1022 A3019
TAF OIKK 301755Z 3018/3124 24004MPS 7000 FEW040 SCT100 
     TEMPO 3108/3116 24007MPS
       
OIKO 302150Z 00000KT 6000 NSC 21/18 Q1013
OIKQ 302200Z 24012KT 2000 BR NSC 23/22 Q1012
OIMB 302200Z 10004KT CAVOK 11/03 Q1020
OIMC 302200Z AUTO 16004KT //// // ////// 10/08 Q1020
OIMD 302200Z AUTO 12002KT //// // ////// 10/06 Q1018
OIMM 302230Z 15004KT 9999 BKN035 09/06 Q1021 A3015
TAF OIMM 301755Z 3018/3124 14005MPS 7000 BKN020 SCT020 BKN100 
     PROB40 3100/3104 3000 BR 
     BECMG 3107/3109 7000 FEW035 BKN100
       
OIMN 302200Z 08004KT CAVOK 08/05 Q1021
OIMQ 302200Z AUTO 07004KT //// // ////// 10/05 Q1021
OINB 302000Z VRB02KT CAVOK 12/10 Q1015
OINE 302100Z 00000KT CAVOK 08/08 Q1014
OING 302200Z 00000KT CAVOK 08/07 Q1016
OINK 301700Z 00000KT 9999 FEW035 11/09 Q1016
OINN 302200Z VRB02KT CAVOK 09/08 Q1014
OINR 302100Z 00000KT CAVOK 10/09 Q1014
OINZ 302200Z 24004KT CAVOK 09/08 Q1015
OISA 302200Z 27010KT CAVOK 11/M02 Q1023
OISF 302200Z 30004KT CAVOK 11/09 Q1019
OISL 302200Z 00000KT CAVOK 17/16 Q1016
TAF COR OISL 301755Z 3018/3124 24004MPS 7000 FEW030
       
OISS 302230Z 00000KT CAVOK 12/05 Q1022 A3019
TAF OISS 301755Z 3018/3124 24004MPS 7000 FEW035 SCT100 
     BECMG 3108/3110 FEW030CB SCT035 BKN100 
     TEMPO 3112/3120 24007G12MPS 4000 TSRA SCT030CB SCT035 OVC100
       
OISY 302200Z 09006KT CAVOK 09/02 Q1024
OITL 302151Z 05006KT 9999 FEW008 01/01 Q1017
OITM 302100Z 00000KT CAVOK 08/M02 Q1018
OITP 302200Z AUTO 23008KT //// // ////// 07/06 Q1015
OITR 302200Z 23004KT 9999 FEW035 07/M03 Q1018
TAF OITR 301755Z 3018/3124 24004MPS 7000 FEW035 SCT100 
     BECMG 3112/3114 24007MPS FEW030CB SCT035 BKN100 
     TEMPO 3114/3124 4000 TSRA SCT030CB SCT035 OVC100
       
OITT 302230Z VRB02KT 9999 FEW040 06/M03 Q1019 A3010
TAF OITT 301755Z 3018/3124 03004MPS 7000 FEW035 SCT100 
     BECMG 3112/3114 24007MPS FEW030CB SCT035 BKN100 
     TEMPO 3114/0106 24007G12MPS 4000 TSRA SCT030CB SCT035 OVC100
       
OITU 301951Z 00000KT CAVOK 07/M02 Q1019
OIYY 302200Z 28002KT CAVOK 16/M01 Q1020
OIZB 302100Z 33008KT CAVOK 16/08 Q1017
OIZC 302000Z 00000KT 7000 NSC 26/15 Q1010 A2985
OIZH 302200Z 27004KT CAVOK 13/05 Q1020 A3014
TAF OIZH 301755Z 3018/3124 03005MPS CAVOK 
     BECMG 3105/3107 24006MPS
       
OIZI 302100Z 00000KT CAVOK 21/06 Q1015
OIZJ 302100Z 31010KT 7000 NSC 26/19 Q1011
OIKB 302200Z 32004KT 5000 BR NSC 22/20 Q1012 A2989
TAF OIKB 301755Z 3018/3124 21004MPS 7000 FEW030 
     BECMG 3021/3023 03004MPS 4000 BR 
     BECMG 3104/3106 15004MPS 4000 HZ 
     BECMG 3120/3121 03004MPS 4000 BR
       
OIBL 302100Z 00000KT CAVOK 22/22 Q1013
OIAA 302200Z 22006KT CAVOK 21/13 Q1014
TAF OIAA 301755Z 3018/3124 33004MPS 7000 FEW030 SCT100 
     PROB30 3100/3104 3000 BR 
     BECMG 3104/3106 13006MPS 6000 FEW030CB SCT035 BKN100 
     TEMPO 3106/3116 24007G13MPS 3000 TSRA/SA SCT030CB SCT035 OVC090
       
OIAD 302000Z 00000KT 6000 NSC 20/16 Q1015 A3000 SCT100 BKN170
OIAG 302000Z 29002KT CAVOK 22/15 Q1015
OIAH 302200Z 00000KT CAVOK 14/09 Q1018
OIAI 302150Z AUTO 00000KT //// // ////// 20/11 Q1015
OIAM 302200Z 00000KT CAVOK 22/17 Q1014
OIAW 302151Z 28002KT CAVOK 21/12 Q1014
TAF OIAW 301755Z 3018/3124 33004MPS 7000 FEW030 SCT100 
     BECMG 3100/3101 13006MPS 6000 FEW030CB SCT035 BKN100 
     TEMPO 3101/3112 24007G13MPS 3000 TSRA/SA SCT030CB SCT035 OVC090 
     TEMPO 3121/3124 24007G13MPS 3000 TSRA SCT030CB SCT035 OVC090
       
OIBB 302150Z 00000KT CAVOK 20/15 Q1014 A2996
OIBK 302200Z 33006KT 5000 BR NSC 23/21 Q1012
TAF OIBK 301755Z 3018/3124 28004MPS 7000 FEW040 
     PROB40 3023/3104 3000 BR SCT015 
     TEMPO 3108/3113 28007MPS
       
OIBL 302100Z 00000KT CAVOK 22/22 Q1013
OIBP 301700Z VRB02KT CAVOK 25/21 Q1011 A2987
OICC 302230Z 29004KT 9999 FEW045 10/04 Q1020 A3014
OICI 302100Z 11002KT CAVOK 09/04 Q1022 A3020
TAF OICI 301755Z 3018/3124 23004MPS 7000 FEW035 SCT100 
     BECMG 3108/3110 FEW035CB SCT040 BKN100 
     TEMPO 3114/3124 16009MPS 3000 RA FEW035CB SCT040 OVC100
       
OICJ 302150Z AUTO 13002KT //// // ////// 11/03 Q1022
OICK 302150Z 14006KT 9999 FEW045 SCT090 09/07 Q1020
OICS 302152Z 19004KT CAVOK 08/03 Q1020
OIFK 302200Z 00000KT CAVOK 13/06 Q1017
OIFM 302230Z 30004KT CAVOK 09/01 Q1020 A3013
TAF OIFM 301755Z 3018/3124 24004MPS 7000 FEW035 SCT100 
     BECMG 3108/3110 FEW030CB SCT035 BKN100 
     TEMPO 3112/3118 24007G12MPS 4000 TSRA/SA SCT030CB SCT035 OVC100
       
OIFS 302200Z 03004KT 9999 FEW040 06/M03 Q1022
OIGG 302200Z 00000KT 2000 BR SCT010 11/11 Q1015
OIGK 302150Z AUTO 26002KT //// // ////// 02/M02 Q1019
OIHH 302153Z 22004KT 9999 SCT040 09/03 Q1020
OIHM 301951Z 11004KT 9999 FEW035 BKN180 09/02 Q1020
OIIE 302200Z 33004KT CAVOK 11/03 Q1018 NOSIG NOSIG
TAF OIIE 301755Z 3018/3124 32005MPS CAVOK 
     BECMG 3110/3112 15005MPS 7000 FEW030CB SCT035 BKN100 
     TEMPO 3121/3124 24007G12MPS 4000 TSRA SCT030CB SCT035 OVC100
       
OIII 302200Z 00000KT CAVOK 15/M01 Q1019 A3009 NOSIG NOSIG
TAF OIII 301755Z 3018/3124 32005MPS CAVOK 
     BECMG 3110/3112 15005MPS 7000 FEW030CB SCT035 BKN100 
     TEMPO 3121/3124 24007G12MPS 4000 TSRA SCT030CB SCT035 OVC100
       
OIIK 302200Z 08002KT CAVOK 09/02 Q1018
OIIS 302200Z 00000KT 9999 FEW040 13/M03 Q1018
OIKB 302200Z 32004KT 5000 BR NSC 22/20 Q1012 A2989
TAF OIKB 301755Z 3018/3124 21004MPS 7000 FEW030 
     BECMG 3021/3023 03004MPS 4000 BR 
     BECMG 3104/3106 15004MPS 4000 HZ 
     BECMG 3120/3121 03004MPS 4000 BR
       
OIKK 302200Z 17004KT CAVOK 10/M01 Q1022 A3019
TAF OIKK 301755Z 3018/3124 24004MPS 7000 FEW040 SCT100 
     TEMPO 3108/3116 24007MPS
       
OIKO 302150Z 00000KT 6000 NSC 21/18 Q1013
OIKQ 302200Z 24012KT 2000 BR NSC 23/22 Q1012
OIMB 302200Z 10004KT CAVOK 11/03 Q1020
OIMC 302200Z AUTO 16004KT //// // ////// 10/08 Q1020
OIMD 302200Z AUTO 12002KT //// // ////// 10/06 Q1018
OIMM 302230Z 15004KT 9999 BKN035 09/06 Q1021 A3015
TAF OIMM 301755Z 3018/3124 14005MPS 7000 BKN020 SCT020 BKN100 
     PROB40 3100/3104 3000 BR 
     BECMG 3107/3109 7000 FEW035 BKN100
       
OIMN 302200Z 08004KT CAVOK 08/05 Q1021
OIMQ 302200Z AUTO 07004KT //// // ////// 10/05 Q1021
OINB 302000Z VRB02KT CAVOK 12/10 Q1015
OINE 302100Z 00000KT CAVOK 08/08 Q1014
OING 302200Z 00000KT CAVOK 08/07 Q1016
OINK 301700Z 00000KT 9999 FEW035 11/09 Q1016
OINN 302200Z VRB02KT CAVOK 09/08 Q1014
OINR 302100Z 00000KT CAVOK 10/09 Q1014
OINZ 302200Z 24004KT CAVOK 09/08 Q1015
OISA 302200Z 27010KT CAVOK 11/M02 Q1023
OISF 302200Z 30004KT CAVOK 11/09 Q1019
OISL 302200Z 00000KT CAVOK 17/16 Q1016
TAF COR OISL 301755Z 3018/3124 24004MPS 7000 FEW030
       
OISS 302230Z 00000KT CAVOK 12/05 Q1022 A3019
TAF OISS 301755Z 3018/3124 24004MPS 7000 FEW035 SCT100 
     BECMG 3108/3110 FEW030CB SCT035 BKN100 
     TEMPO 3112/3120 24007G12MPS 4000 TSRA SCT030CB SCT035 OVC100
       
OISY 302200Z 09006KT CAVOK 09/02 Q1024
OITL 302151Z 05006KT 9999 FEW008 01/01 Q1017
OITM 302100Z 00000KT CAVOK 08/M02 Q1018
OITP 302200Z AUTO 23008KT //// // ////// 07/06 Q1015
OITR 302200Z 23004KT 9999 FEW035 07/M03 Q1018
TAF OITR 301755Z 3018/3124 24004MPS 7000 FEW035 SCT100 
     BECMG 3112/3114 24007MPS FEW030CB SCT035 BKN100 
     TEMPO 3114/3124 4000 TSRA SCT030CB SCT035 OVC100
       
OITT 302230Z VRB02KT 9999 FEW040 06/M03 Q1019 A3010
TAF OITT 301755Z 3018/3124 03004MPS 7000 FEW035 SCT100 
     BECMG 3112/3114 24007MPS FEW030CB SCT035 BKN100 
     TEMPO 3114/0106 24007G12MPS 4000 TSRA SCT030CB SCT035 OVC100
       
OITU 301951Z 00000KT CAVOK 07/M02 Q1019
OIYY 302200Z 28002KT CAVOK 16/M01 Q1020
OIZB 302100Z 33008KT CAVOK 16/08 Q1017
OIZC 302000Z 00000KT 7000 NSC 26/15 Q1010 A2985
OIZH 302200Z 27004KT CAVOK 13/05 Q1020 A3014
TAF OIZH 301755Z 3018/3124 03005MPS CAVOK 
     BECMG 3105/3107 24006MPS
       
OIZI 302100Z 00000KT CAVOK 21/06 Q1015
OIZJ 302100Z 31010KT 7000 NSC 26/19 Q1011
OIMB 302200Z 10004KT CAVOK 11/03 Q1020
OIMN 302200Z 08004KT CAVOK 08/05 Q1021
OIBB 302150Z 00000KT CAVOK 20/15 Q1014 A2996
OIZC 302000Z 00000KT 7000 NSC 26/15 Q1010 A2985
OIKQ 302200Z 24012KT 2000 BR NSC 23/22 Q1012
OIAD 302000Z 00000KT 6000 NSC 20/16 Q1015 A3000 SCT100 BKN170
OIAA 302200Z 22006KT CAVOK 21/13 Q1014
TAF OIAA 301755Z 3018/3124 33004MPS 7000 FEW030 SCT100 
     PROB30 3100/3104 3000 BR 
     BECMG 3104/3106 13006MPS 6000 FEW030CB SCT035 BKN100 
     TEMPO 3106/3116 24007G13MPS 3000 TSRA/SA SCT030CB SCT035 OVC090
       
OIAD 302000Z 00000KT 6000 NSC 20/16 Q1015 A3000 SCT100 BKN170
OIAG 302000Z 29002KT CAVOK 22/15 Q1015
OIAH 302200Z 00000KT CAVOK 14/09 Q1018
OIAI 302150Z AUTO 00000KT //// // ////// 20/11 Q1015
OIAM 302200Z 00000KT CAVOK 22/17 Q1014
OIAW 302151Z 28002KT CAVOK 21/12 Q1014
TAF OIAW 301755Z 3018/3124 33004MPS 7000 FEW030 SCT100 
     BECMG 3100/3101 13006MPS 6000 FEW030CB SCT035 BKN100 
     TEMPO 3101/3112 24007G13MPS 3000 TSRA/SA SCT030CB SCT035 OVC090 
     TEMPO 3121/3124 24007G13MPS 3000 TSRA SCT030CB SCT035 OVC090
       
OIBB 302150Z 00000KT CAVOK 20/15 Q1014 A2996
OIBK 302200Z 33006KT 5000 BR NSC 23/21 Q1012
TAF OIBK 301755Z 3018/3124 28004MPS 7000 FEW040 
     PROB40 3023/3104 3000 BR SCT015 
     TEMPO 3108/3113 28007MPS
       
OIBL 302100Z 00000KT CAVOK 22/22 Q1013
OIBP 301700Z VRB02KT CAVOK 25/21 Q1011 A2987
OICC 302230Z 29004KT 9999 FEW045 10/04 Q1020 A3014
OICI 302100Z 11002KT CAVOK 09/04 Q1022 A3020
TAF OICI 301755Z 3018/3124 23004MPS 7000 FEW035 SCT100 
     BECMG 3108/3110 FEW035CB SCT040 BKN100 
     TEMPO 3114/3124 16009MPS 3000 RA FEW035CB SCT040 OVC100
       
OICJ 302150Z AUTO 13002KT //// // ////// 11/03 Q1022
OICK 302150Z 14006KT 9999 FEW045 SCT090 09/07 Q1020
OICS 302152Z 19004KT CAVOK 08/03 Q1020
OIFK 302200Z 00000KT CAVOK 13/06 Q1017
OIFM 302230Z 30004KT CAVOK 09/01 Q1020 A3013
TAF OIFM 301755Z 3018/3124 24004MPS 7000 FEW035 SCT100 
     BECMG 3108/3110 FEW030CB SCT035 BKN100 
     TEMPO 3112/3118 24007G12MPS 4000 TSRA/SA SCT030CB SCT035 OVC100
       
OIFS 302200Z 03004KT 9999 FEW040 06/M03 Q1022
OIGG 302200Z 00000KT 2000 BR SCT010 11/11 Q1015
OIGK 302150Z AUTO 26002KT //// // ////// 02/M02 Q1019
OIHH 302153Z 22004KT 9999 SCT040 09/03 Q1020
OIHM 301951Z 11004KT 9999 FEW035 BKN180 09/02 Q1020
OIIE 302200Z 33004KT CAVOK 11/03 Q1018 NOSIG NOSIG
TAF OIIE 301755Z 3018/3124 32005MPS CAVOK 
     BECMG 3110/3112 15005MPS 7000 FEW030CB SCT035 BKN100 
     TEMPO 3121/3124 24007G12MPS 4000 TSRA SCT030CB SCT035 OVC100
       
OIII 302200Z 00000KT CAVOK 15/M01 Q1019 A3009 NOSIG NOSIG
TAF OIII 301755Z 3018/3124 32005MPS CAVOK 
     BECMG 3110/3112 15005MPS 7000 FEW030CB SCT035 BKN100 
     TEMPO 3121/3124 24007G12MPS 4000 TSRA SCT030CB SCT035 OVC100
       
OIIK 302200Z 08002KT CAVOK 09/02 Q1018
OIIS 302200Z 00000KT 9999 FEW040 13/M03 Q1018
OIKB 302200Z 32004KT 5000 BR NSC 22/20 Q1012 A2989
TAF OIKB 301755Z 3018/3124 21004MPS 7000 FEW030 
     BECMG 3021/3023 03004MPS 4000 BR 
     BECMG 3104/3106 15004MPS 4000 HZ 
     BECMG 3120/3121 03004MPS 4000 BR
       
OIKK 302200Z 17004KT CAVOK 10/M01 Q1022 A3019
TAF OIKK 301755Z 3018/3124 24004MPS 7000 FEW040 SCT100 
     TEMPO 3108/3116 24007MPS
       
OIKO 302150Z 00000KT 6000 NSC 21/18 Q1013
OIKQ 302200Z 24012KT 2000 BR NSC 23/22 Q1012
OIMB 302200Z 10004KT CAVOK 11/03 Q1020
OIMC 302200Z AUTO 16004KT //// // ////// 10/08 Q1020
OIMD 302200Z AUTO 12002KT //// // ////// 10/06 Q1018
OIMM 302230Z 15004KT 9999 BKN035 09/06 Q1021 A3015
TAF OIMM 301755Z 3018/3124 14005MPS 7000 BKN020 SCT020 BKN100 
     PROB40 3100/3104 3000 BR 
     BECMG 3107/3109 7000 FEW035 BKN100
       
OIMN 302200Z 08004KT CAVOK 08/05 Q1021
OIMQ 302200Z AUTO 07004KT //// // ////// 10/05 Q1021
OINB 302000Z VRB02KT CAVOK 12/10 Q1015
OINE 302100Z 00000KT CAVOK 08/08 Q1014
OING 302200Z 00000KT CAVOK 08/07 Q1016
OINK 301700Z 00000KT 9999 FEW035 11/09 Q1016
OINN 302200Z VRB02KT CAVOK 09/08 Q1014
OINR 302100Z 00000KT CAVOK 10/09 Q1014
OINZ 302200Z 24004KT CAVOK 09/08 Q1015
OISA 302200Z 27010KT CAVOK 11/M02 Q1023
OISF 302200Z 30004KT CAVOK 11/09 Q1019
OISL 302200Z 00000KT CAVOK 17/16 Q1016
TAF COR OISL 301755Z 3018/3124 24004MPS 7000 FEW030
       
OISS 302230Z 00000KT CAVOK 12/05 Q1022 A3019
TAF OISS 301755Z 3018/3124 24004MPS 7000 FEW035 SCT100 
     BECMG 3108/3110 FEW030CB SCT035 BKN100 
     TEMPO 3112/3120 24007G12MPS 4000 TSRA SCT030CB SCT035 OVC100
       
OISY 302200Z 09006KT CAVOK 09/02 Q1024
OITL 302151Z 05006KT 9999 FEW008 01/01 Q1017
OITM 302100Z 00000KT CAVOK 08/M02 Q1018
OITP 302200Z AUTO 23008KT //// // ////// 07/06 Q1015
OITR 302200Z 23004KT 9999 FEW035 07/M03 Q1018
TAF OITR 301755Z 3018/3124 24004MPS 7000 FEW035 SCT100 
     BECMG 3112/3114 24007MPS FEW030CB SCT035 BKN100 
     TEMPO 3114/3124 4000 TSRA SCT030CB SCT035 OVC100
       
OITT 302230Z VRB02KT 9999 FEW040 06/M03 Q1019 A3010
TAF OITT 301755Z 3018/3124 03004MPS 7000 FEW035 SCT100 
     BECMG 3112/3114 24007MPS FEW030CB SCT035 BKN100 
     TEMPO 3114/0106 24007G12MPS 4000 TSRA SCT030CB SCT035 OVC100
       
OITU 301951Z 00000KT CAVOK 07/M02 Q1019
OIYY 302200Z 28002KT CAVOK 16/M01 Q1020
OIZB 302100Z 33008KT CAVOK 16/08 Q1017
OIZC 302000Z 00000KT 7000 NSC 26/15 Q1010 A2985
OIZH 302200Z 27004KT CAVOK 13/05 Q1020 A3014
TAF OIZH 301755Z 3018/3124 03005MPS CAVOK 
     BECMG 3105/3107 24006MPS
       
OIZI 302100Z 00000KT CAVOK 21/06 Q1015
OIZJ 302100Z 31010KT 7000 NSC 26/19 Q1011
OIFM 302230Z 30004KT CAVOK 09/01 Q1020 A3013
TAF OIFM 301755Z 3018/3124 24004MPS 7000 FEW035 SCT100 
     BECMG 3108/3110 FEW030CB SCT035 BKN100 
     TEMPO 3112/3118 24007G12MPS 4000 TSRA/SA SCT030CB SCT035 OVC100
       
OISF 302200Z 30004KT CAVOK 11/09 Q1019
OIAH 302200Z 00000KT CAVOK 14/09 Q1018
OIAA 302200Z 22006KT CAVOK 21/13 Q1014
TAF OIAA 301755Z 3018/3124 33004MPS 7000 FEW030 SCT100 
     PROB30 3100/3104 3000 BR 
     BECMG 3104/3106 13006MPS 6000 FEW030CB SCT035 BKN100 
     TEMPO 3106/3116 24007G13MPS 3000 TSRA/SA SCT030CB SCT035 OVC090
       
OIAD 302000Z 00000KT 6000 NSC 20/16 Q1015 A3000 SCT100 BKN170
OIAG 302000Z 29002KT CAVOK 22/15 Q1015
OIAH 302200Z 00000KT CAVOK 14/09 Q1018
OIAI 302150Z AUTO 00000KT //// // ////// 20/11 Q1015
OIAM 302200Z 00000KT CAVOK 22/17 Q1014
OIAW 302151Z 28002KT CAVOK 21/12 Q1014
TAF OIAW 301755Z 3018/3124 33004MPS 7000 FEW030 SCT100 
     BECMG 3100/3101 13006MPS 6000 FEW030CB SCT035 BKN100 
     TEMPO 3101/3112 24007G13MPS 3000 TSRA/SA SCT030CB SCT035 OVC090 
     TEMPO 3121/3124 24007G13MPS 3000 TSRA SCT030CB SCT035 OVC090
       
OIBB 302150Z 00000KT CAVOK 20/15 Q1014 A2996
OIBK 302200Z 33006KT 5000 BR NSC 23/21 Q1012
TAF OIBK 301755Z 3018/3124 28004MPS 7000 FEW040 
     PROB40 3023/3104 3000 BR SCT015 
     TEMPO 3108/3113 28007MPS
       
OIBL 302100Z 00000KT CAVOK 22/22 Q1013
OIBP 301700Z VRB02KT CAVOK 25/21 Q1011 A2987
OICC 302230Z 29004KT 9999 FEW045 10/04 Q1020 A3014
OICI 302100Z 11002KT CAVOK 09/04 Q1022 A3020
TAF OICI 301755Z 3018/3124 23004MPS 7000 FEW035 SCT100 
     BECMG 3108/3110 FEW035CB SCT040 BKN100 
     TEMPO 3114/3124 16009MPS 3000 RA FEW035CB SCT040 OVC100
       
OICJ 302150Z AUTO 13002KT //// // ////// 11/03 Q1022
OICK 302150Z 14006KT 9999 FEW045 SCT090 09/07 Q1020
OICS 302152Z 19004KT CAVOK 08/03 Q1020
OIFK 302200Z 00000KT CAVOK 13/06 Q1017
OIFM 302230Z 30004KT CAVOK 09/01 Q1020 A3013
TAF OIFM 301755Z 3018/3124 24004MPS 7000 FEW035 SCT100 
     BECMG 3108/3110 FEW030CB SCT035 BKN100 
     TEMPO 3112/3118 24007G12MPS 4000 TSRA/SA SCT030CB SCT035 OVC100
       
OIFS 302200Z 03004KT 9999 FEW040 06/M03 Q1022
OIGG 302200Z 00000KT 2000 BR SCT010 11/11 Q1015
OIGK 302150Z AUTO 26002KT //// // ////// 02/M02 Q1019
OIHH 302153Z 22004KT 9999 SCT040 09/03 Q1020
OIHM 301951Z 11004KT 9999 FEW035 BKN180 09/02 Q1020
OIIE 302200Z 33004KT CAVOK 11/03 Q1018 NOSIG NOSIG
TAF OIIE 301755Z 3018/3124 32005MPS CAVOK 
     BECMG 3110/3112 15005MPS 7000 FEW030CB SCT035 BKN100 
     TEMPO 3121/3124 24007G12MPS 4000 TSRA SCT030CB SCT035 OVC100
       
OIII 302200Z 00000KT CAVOK 15/M01 Q1019 A3009 NOSIG NOSIG
TAF OIII 301755Z 3018/3124 32005MPS CAVOK 
     BECMG 3110/3112 15005MPS 7000 FEW030CB SCT035 BKN100 
     TEMPO 3121/3124 24007G12MPS 4000 TSRA SCT030CB SCT035 OVC100
       
OIIK 302200Z 08002KT CAVOK 09/02 Q1018
OIIS 302200Z 00000KT 9999 FEW040 13/M03 Q1018
OIKB 302200Z 32004KT 5000 BR NSC 22/20 Q1012 A2989
TAF OIKB 301755Z 3018/3124 21004MPS 7000 FEW030 
     BECMG 3021/3023 03004MPS 4000 BR 
     BECMG 3104/3106 15004MPS 4000 HZ 
     BECMG 3120/3121 03004MPS 4000 BR
       
OIKK 302200Z 17004KT CAVOK 10/M01 Q1022 A3019
TAF OIKK 301755Z 3018/3124 24004MPS 7000 FEW040 SCT100 
     TEMPO 3108/3116 24007MPS
       
OIKO 302150Z 00000KT 6000 NSC 21/18 Q1013
OIKQ 302200Z 24012KT 2000 BR NSC 23/22 Q1012
OIMB 302200Z 10004KT CAVOK 11/03 Q1020
OIMC 302200Z AUTO 16004KT //// // ////// 10/08 Q1020
OIMD 302200Z AUTO 12002KT //// // ////// 10/06 Q1018
OIMM 302230Z 15004KT 9999 BKN035 09/06 Q1021 A3015
TAF OIMM 301755Z 3018/3124 14005MPS 7000 BKN020 SCT020 BKN100 
     PROB40 3100/3104 3000 BR 
     BECMG 3107/3109 7000 FEW035 BKN100
       
OIMN 302200Z 08004KT CAVOK 08/05 Q1021
OIMQ 302200Z AUTO 07004KT //// // ////// 10/05 Q1021
OINB 302000Z VRB02KT CAVOK 12/10 Q1015
OINE 302100Z 00000KT CAVOK 08/08 Q1014
OING 302200Z 00000KT CAVOK 08/07 Q1016
OINK 301700Z 00000KT 9999 FEW035 11/09 Q1016
OINN 302200Z VRB02KT CAVOK 09/08 Q1014
OINR 302100Z 00000KT CAVOK 10/09 Q1014
OINZ 302200Z 24004KT CAVOK 09/08 Q1015
OISA 302200Z 27010KT CAVOK 11/M02 Q1023
OISF 302200Z 30004KT CAVOK 11/09 Q1019
OISL 302200Z 00000KT CAVOK 17/16 Q1016
TAF COR OISL 301755Z 3018/3124 24004MPS 7000 FEW030
       
OISS 302230Z 00000KT CAVOK 12/05 Q1022 A3019
TAF OISS 301755Z 3018/3124 24004MPS 7000 FEW035 SCT100 
     BECMG 3108/3110 FEW030CB SCT035 BKN100 
     TEMPO 3112/3120 24007G12MPS 4000 TSRA SCT030CB SCT035 OVC100
       
OISY 302200Z 09006KT CAVOK 09/02 Q1024
OITL 302151Z 05006KT 9999 FEW008 01/01 Q1017
OITM 302100Z 00000KT CAVOK 08/M02 Q1018
OITP 302200Z AUTO 23008KT //// // ////// 07/06 Q1015
OITR 302200Z 23004KT 9999 FEW035 07/M03 Q1018
TAF OITR 301755Z 3018/3124 24004MPS 7000 FEW035 SCT100 
     BECMG 3112/3114 24007MPS FEW030CB SCT035 BKN100 
     TEMPO 3114/3124 4000 TSRA SCT030CB SCT035 OVC100
       
OITT 302230Z VRB02KT 9999 FEW040 06/M03 Q1019 A3010
TAF OITT 301755Z 3018/3124 03004MPS 7000 FEW035 SCT100 
     BECMG 3112/3114 24007MPS FEW030CB SCT035 BKN100 
     TEMPO 3114/0106 24007G12MPS 4000 TSRA SCT030CB SCT035 OVC100
       
OITU 301951Z 00000KT CAVOK 07/M02 Q1019
OIYY 302200Z 28002KT CAVOK 16/M01 Q1020
OIZB 302100Z 33008KT CAVOK 16/08 Q1017
OIZC 302000Z 00000KT 7000 NSC 26/15 Q1010 A2985
OIZH 302200Z 27004KT CAVOK 13/05 Q1020 A3014
TAF OIZH 301755Z 3018/3124 03005MPS CAVOK 
     BECMG 3105/3107 24006MPS
       
OIZI 302100Z 00000KT CAVOK 21/06 Q1015
OIZJ 302100Z 31010KT 7000 NSC 26/19 Q1011
OIIK 302200Z 08002KT CAVOK 09/02 Q1018
OIAA 302200Z 22006KT CAVOK 21/13 Q1014
TAF OIAA 301755Z 3018/3124 33004MPS 7000 FEW030 SCT100 
     PROB30 3100/3104 3000 BR 
     BECMG 3104/3106 13006MPS 6000 FEW030CB SCT035 BKN100 
     TEMPO 3106/3116 24007G13MPS 3000 TSRA/SA SCT030CB SCT035 OVC090
       
OIAD 302000Z 00000KT 6000 NSC 20/16 Q1015 A3000 SCT100 BKN170
OIAG 302000Z 29002KT CAVOK 22/15 Q1015
OIAH 302200Z 00000KT CAVOK 14/09 Q1018
OIAI 302150Z AUTO 00000KT //// // ////// 20/11 Q1015
OIAM 302200Z 00000KT CAVOK 22/17 Q1014
OIAW 302151Z 28002KT CAVOK 21/12 Q1014
TAF OIAW 301755Z 3018/3124 33004MPS 7000 FEW030 SCT100 
     BECMG 3100/3101 13006MPS 6000 FEW030CB SCT035 BKN100 
     TEMPO 3101/3112 24007G13MPS 3000 TSRA/SA SCT030CB SCT035 OVC090 
     TEMPO 3121/3124 24007G13MPS 3000 TSRA SCT030CB SCT035 OVC090
       
OIBB 302150Z 00000KT CAVOK 20/15 Q1014 A2996
OIBK 302200Z 33006KT 5000 BR NSC 23/21 Q1012
TAF OIBK 301755Z 3018/3124 28004MPS 7000 FEW040 
     PROB40 3023/3104 3000 BR SCT015 
     TEMPO 3108/3113 28007MPS
       
OIBL 302100Z 00000KT CAVOK 22/22 Q1013
OIBP 301700Z VRB02KT CAVOK 25/21 Q1011 A2987
OICC 302230Z 29004KT 9999 FEW045 10/04 Q1020 A3014
OICI 302100Z 11002KT CAVOK 09/04 Q1022 A3020
TAF OICI 301755Z 3018/3124 23004MPS 7000 FEW035 SCT100 
     BECMG 3108/3110 FEW035CB SCT040 BKN100 
     TEMPO 3114/3124 16009MPS 3000 RA FEW035CB SCT040 OVC100
       
OICJ 302150Z AUTO 13002KT //// // ////// 11/03 Q1022
OICK 302150Z 14006KT 9999 FEW045 SCT090 09/07 Q1020
OICS 302152Z 19004KT CAVOK 08/03 Q1020
OIFK 302200Z 00000KT CAVOK 13/06 Q1017
OIFM 302230Z 30004KT CAVOK 09/01 Q1020 A3013
TAF OIFM 301755Z 3018/3124 24004MPS 7000 FEW035 SCT100 
     BECMG 3108/3110 FEW030CB SCT035 BKN100 
     TEMPO 3112/3118 24007G12MPS 4000 TSRA/SA SCT030CB SCT035 OVC100
       
OIFS 302200Z 03004KT 9999 FEW040 06/M03 Q1022
OIGG 302200Z 00000KT 2000 BR SCT010 11/11 Q1015
OIGK 302150Z AUTO 26002KT //// // ////// 02/M02 Q1019
OIHH 302153Z 22004KT 9999 SCT040 09/03 Q1020
OIHM 301951Z 11004KT 9999 FEW035 BKN180 09/02 Q1020
OIIE 302200Z 33004KT CAVOK 11/03 Q1018 NOSIG NOSIG
TAF OIIE 301755Z 3018/3124 32005MPS CAVOK 
     BECMG 3110/3112 15005MPS 7000 FEW030CB SCT035 BKN100 
     TEMPO 3121/3124 24007G12MPS 4000 TSRA SCT030CB SCT035 OVC100
       
OIII 302200Z 00000KT CAVOK 15/M01 Q1019 A3009 NOSIG NOSIG
TAF OIII 301755Z 3018/3124 32005MPS CAVOK 
     BECMG 3110/3112 15005MPS 7000 FEW030CB SCT035 BKN100 
     TEMPO 3121/3124 24007G12MPS 4000 TSRA SCT030CB SCT035 OVC100
       
OIIK 302200Z 08002KT CAVOK 09/02 Q1018
OIIS 302200Z 00000KT 9999 FEW040 13/M03 Q1018
OIKB 302200Z 32004KT 5000 BR NSC 22/20 Q1012 A2989
TAF OIKB 301755Z 3018/3124 21004MPS 7000 FEW030 
     BECMG 3021/3023 03004MPS 4000 BR 
     BECMG 3104/3106 15004MPS 4000 HZ 
     BECMG 3120/3121 03004MPS 4000 BR
       
OIKK 302200Z 17004KT CAVOK 10/M01 Q1022 A3019
TAF OIKK 301755Z 3018/3124 24004MPS 7000 FEW040 SCT100 
     TEMPO 3108/3116 24007MPS
       
OIKO 302150Z 00000KT 6000 NSC 21/18 Q1013
OIKQ 302200Z 24012KT 2000 BR NSC 23/22 Q1012
OIMB 302200Z 10004KT CAVOK 11/03 Q1020
OIMC 302200Z AUTO 16004KT //// // ////// 10/08 Q1020
OIMD 302200Z AUTO 12002KT //// // ////// 10/06 Q1018
OIMM 302230Z 15004KT 9999 BKN035 09/06 Q1021 A3015
TAF OIMM 301755Z 3018/3124 14005MPS 7000 BKN020 SCT020 BKN100 
     PROB40 3100/3104 3000 BR 
     BECMG 3107/3109 7000 FEW035 BKN100
       
OIMN 302200Z 08004KT CAVOK 08/05 Q1021
OIMQ 302200Z AUTO 07004KT //// // ////// 10/05 Q1021
OINB 302000Z VRB02KT CAVOK 12/10 Q1015
OINE 302100Z 00000KT CAVOK 08/08 Q1014
OING 302200Z 00000KT CAVOK 08/07 Q1016
OINK 301700Z 00000KT 9999 FEW035 11/09 Q1016
OINN 302200Z VRB02KT CAVOK 09/08 Q1014
OINR 302100Z 00000KT CAVOK 10/09 Q1014
OINZ 302200Z 24004KT CAVOK 09/08 Q1015
OISA 302200Z 27010KT CAVOK 11/M02 Q1023
OISF 302200Z 30004KT CAVOK 11/09 Q1019
OISL 302200Z 00000KT CAVOK 17/16 Q1016
TAF COR OISL 301755Z 3018/3124 24004MPS 7000 FEW030
       
OISS 302230Z 00000KT CAVOK 12/05 Q1022 A3019
TAF OISS 301755Z 3018/3124 24004MPS 7000 FEW035 SCT100 
     BECMG 3108/3110 FEW030CB SCT035 BKN100 
     TEMPO 3112/3120 24007G12MPS 4000 TSRA SCT030CB SCT035 OVC100
       
OISY 302200Z 09006KT CAVOK 09/02 Q1024
OITL 302151Z 05006KT 9999 FEW008 01/01 Q1017
OITM 302100Z 00000KT CAVOK 08/M02 Q1018
OITP 302200Z AUTO 23008KT //// // ////// 07/06 Q1015
OITR 302200Z 23004KT 9999 FEW035 07/M03 Q1018
TAF OITR 301755Z 3018/3124 24004MPS 7000 FEW035 SCT100 
     BECMG 3112/3114 24007MPS FEW030CB SCT035 BKN100 
     TEMPO 3114/3124 4000 TSRA SCT030CB SCT035 OVC100
       
OITT 302230Z VRB02KT 9999 FEW040 06/M03 Q1019 A3010
TAF OITT 301755Z 3018/3124 03004MPS 7000 FEW035 SCT100 
     BECMG 3112/3114 24007MPS FEW030CB SCT035 BKN100 
     TEMPO 3114/0106 24007G12MPS 4000 TSRA SCT030CB SCT035 OVC100
       
OITU 301951Z 00000KT CAVOK 07/M02 Q1019
OIYY 302200Z 28002KT CAVOK 16/M01 Q1020
OIZB 302100Z 33008KT CAVOK 16/08 Q1017
OIZC 302000Z 00000KT 7000 NSC 26/15 Q1010 A2985
OIZH 302200Z 27004KT CAVOK 13/05 Q1020 A3014
TAF OIZH 301755Z 3018/3124 03005MPS CAVOK 
     BECMG 3105/3107 24006MPS
       
OIZI 302100Z 00000KT CAVOK 21/06 Q1015
OIZJ 302100Z 31010KT 7000 NSC 26/19 Q1011
OING 302200Z 00000KT CAVOK 08/07 Q1016
OIHH 302153Z 22004KT 9999 SCT040 09/03 Q1020
OICI 302100Z 11002KT CAVOK 09/04 Q1022 A3020
TAF OICI 301755Z 3018/3124 23004MPS 7000 FEW035 SCT100 
     BECMG 3108/3110 FEW035CB SCT040 BKN100 
     TEMPO 3114/3124 16009MPS 3000 RA FEW035CB SCT040 OVC100
       
OIZI 302100Z 00000KT CAVOK 21/06 Q1015
OIZJ 302100Z 31010KT 7000 NSC 26/19 Q1011
OINE 302100Z 00000KT CAVOK 08/08 Q1014
OIKK 302200Z 17004KT CAVOK 10/M01 Q1022 A3019
TAF OIKK 301755Z 3018/3124 24004MPS 7000 FEW040 SCT100 
     TEMPO 3108/3116 24007MPS
       
OICK 302150Z 14006KT 9999 FEW045 SCT090 09/07 Q1020
OIBK 302200Z 33006KT 5000 BR NSC 23/21 Q1012
TAF OIBK 301755Z 3018/3124 28004MPS 7000 FEW040 
     PROB40 3023/3104 3000 BR SCT015 
     TEMPO 3108/3113 28007MPS
       
OISL 302200Z 00000KT CAVOK 17/16 Q1016
TAF COR OISL 301755Z 3018/3124 24004MPS 7000 FEW030
       
OIAM 302200Z 00000KT CAVOK 22/17 Q1014
OIMM 302230Z 15004KT 9999 BKN035 09/06 Q1021 A3015
TAF OIMM 301755Z 3018/3124 14005MPS 7000 BKN020 SCT020 BKN100 
     PROB40 3100/3104 3000 BR 
     BECMG 3107/3109 7000 FEW035 BKN100
       
OIII 302200Z 00000KT CAVOK 15/M01 Q1019 A3009 NOSIG NOSIG
TAF OIII 301755Z 3018/3124 32005MPS CAVOK 
     BECMG 3110/3112 15005MPS 7000 FEW030CB SCT035 BKN100 
     TEMPO 3121/3124 24007G12MPS 4000 TSRA SCT030CB SCT035 OVC100
       
OINN 302200Z VRB02KT CAVOK 09/08 Q1014
OITP 302200Z AUTO 23008KT //// // ////// 07/06 Q1015
OINR 302100Z 00000KT CAVOK 10/09 Q1014
OIGG 302200Z 00000KT 2000 BR SCT010 11/11 Q1015
OITM 302100Z 00000KT CAVOK 08/M02 Q1018
OICS 302152Z 19004KT CAVOK 08/03 Q1020
OIMC 302200Z AUTO 16004KT //// // ////// 10/08 Q1020
OINZ 302200Z 24004KT CAVOK 09/08 Q1015
OIIS 302200Z 00000KT 9999 FEW040 13/M03 Q1018
OICC 302230Z 29004KT 9999 FEW045 10/04 Q1020 A3014
OIAI 302150Z AUTO 00000KT //// // ////// 20/11 Q1015
OIFS 302200Z 03004KT 9999 FEW040 06/M03 Q1022
OISS 302230Z 00000KT CAVOK 12/05 Q1022 A3019
TAF OISS 301755Z 3018/3124 24004MPS 7000 FEW035 SCT100 
     BECMG 3108/3110 FEW030CB SCT035 BKN100 
     TEMPO 3112/3120 24007G12MPS 4000 TSRA SCT030CB SCT035 OVC100
       
OITT 302230Z VRB02KT 9999 FEW040 06/M03 Q1019 A3010
TAF OITT 301755Z 3018/3124 03004MPS 7000 FEW035 SCT100 
     BECMG 3112/3114 24007MPS FEW030CB SCT035 BKN100 
     TEMPO 3114/0106 24007G12MPS 4000 TSRA SCT030CB SCT035 OVC100
       
OITR 302200Z 23004KT 9999 FEW035 07/M03 Q1018
TAF OITR 301755Z 3018/3124 24004MPS 7000 FEW035 SCT100 
     BECMG 3112/3114 24007MPS FEW030CB SCT035 BKN100 
     TEMPO 3114/3124 4000 TSRA SCT030CB SCT035 OVC100
       
OISY 302200Z 09006KT CAVOK 09/02 Q1024
OIYY 302200Z 28002KT CAVOK 16/M01 Q1020
OIZB 302100Z 33008KT CAVOK 16/08 Q1017
OIZH 302200Z 27004KT CAVOK 13/05 Q1020 A3014
TAF OIZH 301755Z 3018/3124 03005MPS CAVOK 
     BECMG 3105/3107 24006MPS